Wind_Speed
29 28 27 26 25 27 27 28 27 25 23 22 20 19 17 17 17 17 18 18 18 18 18 19 21 22 21 21 20 20 21 21 19 18 17 16 16 15 14 14 13 13 12 12 11 11 11 11 11 11 11 11 10 9 8 9 9 9 9 9 10 9 9 10 10 11 14 14 12 13 14 14 14 13 14 15 15 15 15 16 17 18 18 19 20
31 29 27 27 27 28 28 28 27 25 24 22 21 19 18 18 19 19 20 21 20 22 23 25 26 27 25 24 23 24 25 24 22 21 21 21 20 18 16 15 13 13 13 11 11 11 11 11 12 12 12 12 12 10 10 10 10 10 9 9 10 10 9 10 10 11 13 15 15 16 15 15 15 14 14 16 16 15 16 16 16 17 17 18 20
31 29 28 28 29 29 28 27 26 25 24 22 21 20 19 20 22 22 21 22 23 27 29 30 30 30 29 27 27 26 26 25 23 22 22 22 21 19 17 16 14 13 13 12 12 12 12 12 12 12 12 12 12 11 10 10 9 9 10 10 11 12 11 12 12 12 14 15 16 16 16 15 16 15 15 15 16 16 16 16 16 17 17 18 19
30 29 29 29 30 29 28 27 26 26 24 23 23 23 23 23 24 24 24 26 30 34 34 34 34 33 31 29 28 26 24 23 22 22 22 21 21 20 19 17 15 13 12 12 12 12 12 12 13 13 13 13 13 12 11 10 10 10 11 11 12 13 13 12 13 13 14 15 15 16 15 15 16 17 16 16 16 16 16 16 17 17 18 18 19
30 30 30 30 30 29 28 27 27 26 25 25 27 27 26 25 27 29 31 32 36 39 38 35 34 33 31 28 28 26 24 23 22 21 21 20 20 20 19 17 15 13 11 11 11 12 12 13 13 13 13 13 13 12 11 11 11 11 12 12 12 12 12 12 13 15 16 16 16 16 16 15 16 17 16 16 16 16 16 16 17 18 18 19 20
30 30 30 30 30 29 29 28 28 28 29 30 30 30 29 28 30 34 35 34 34 37 38 34 32 33 32 29 28 27 24 23 23 22 21 21 20 19 18 17 15 14 12 10 11 12 13 14 15 15 15 15 14 13 12 12 12 12 12 12 11 11 11 12 14 16 16 14 15 16 17 17 16 16 15 16 17 17 17 17 17 17 17 18 20
30 30 30 28 28 29 30 29 29 31 34 34 32 30 30 31 32 35 36 33 31 33 34 33 33 34 32 30 28 27 25 24 24 23 22 22 21 20 19 18 17 16 14 12 11 12 14 16 17 17 16 16 15 14 13 13 13 14 13 12 11 11 11 11 12 13 13 13 14 17 17 17 17 18 17 17 18 18 17 17 16 16 17 19 20
29 29 28 27 26 28 28 29 30 32 33 33 33 32 32 32 34 36 38 35 32 31 31 32 34 33 30 29 28 27 27 25 25 25 24 22 22 21 20 19 19 18 16 15 13 13 15 18 19 19 18 17 17 17 16 15 14 14 13 13 13 12 11 12 13 13 14 14 15 16 17 17 17 17 17 16 16 16 16 16 18 19 20 20 19
28 28 27 26 25 26 26 26 28 29 28 28 30 32 33 34 36 40 41 37 32 29 28 29 31 30 28 28 28 27 27 26 26 26 25 23 22 22 21 20 20 20 18 16 15 14 15 19 21 20 19 18 19 19 19 18 17 15 14 14 14 13 13 14 14 14 14 14 15 15 15 16 16 16 16 15 15 16 17 19 21 21 19 19 20
26 27 26 25 24 25 25 25 27 27 27 27 27 29 30 30 31 33 32 29 26 24 24 25 27 28 28 29 29 28 27 27 27 27 28 26 22 21 21 21 21 21 18 16 15 14 15 19 22 23 22 21 21 22 22 21 20 21 20 17 16 14 14 14 14 14 13 14 15 15 15 16 16 16 16 16 16 17 18 19 19 18 17 18 20
25 26 25 24 24 25 25 26 27 27 28 28 29 31 30 28 28 26 21 20 21 20 20 23 24 25 26 27 28 28 26 27 29 30 31 28 23 22 23 21 19 18 16 13 12 12 13 16 21 23 22 21 21 22 24 24 24 24 24 23 20 18 17 16 14 14 13 14 15 16 16 17 17 17 18 18 18 18 16 15 16 18 18 17 17
25 25 25 24 25 25 24 25 26 25 25 27 29 31 30 26 24 22 18 17 19 19 20 21 22 23 25 26 27 27 26 28 31 33 34 29 23 22 21 18 15 14 13 12 10 10 10 13 16 18 19 21 21 18 19 22 24 25 25 24 22 20 19 19 17 15 14 15 16 17 17 17 18 17 17 17 17 17 16 15 16 18 19 17 17
25 25 25 24 24 23 23 24 24 22 21 23 24 25 26 24 21 19 18 17 17 18 19 21 22 24 26 26 25 26 26 29 33 35 34 29 23 20 19 17 15 14 14 12 9 9 11 12 14 17 20 21 19 15 17 22 23 22 21 21 20 19 19 19 18 17 18 17 17 17 17 17 17 16 15 14 15 17 16 16 17 18 19 19 20
25 24 24 24 24 23 22 23 22 21 21 22 22 22 23 23 22 19 17 16 17 19 20 22 24 27 27 24 22 23 25 29 34 36 35 31 25 20 17 17 15 14 13 11 8 10 12 12 13 17 21 21 17 17 21 23 20 19 19 20 20 18 17 17 18 19 21 22 20 19 17 16 15 15 14 14 15 16 16 17 18 20 22 23 24
23 23 23 24 24 24 23 22 21 22 22 20 21 22 22 22 21 20 18 18 19 20 22 23 24 25 24 22 20 20 22 27 32 34 32 28 23 18 16 17 17 16 14 11 9 11 13 14 15 18 21 21 19 21 25 24 21 18 18 18 17 15 16 17 18 18 19 21 21 20 18 16 16 16 16 15 15 16 16 18 19 21 24 26 25
23 23 23 24 24 24 24 22 21 22 21 19 18 18 19 19 18 17 18 18 17 18 20 21 22 21 20 21 20 18 20 26 31 31 29 25 21 18 17 18 19 18 14 10 9 10 12 15 17 18 17 15 15 18 23 24 22 18 15 14 14 15 16 17 17 17 17 18 18 16 15 15 17 18 18 18 17 17 16 17 18 21 23 23 22
23 23 23 23 23 23 22 22 21 21 20 18 16 15 15 15 15 15 16 16 16 17 18 20 20 19 20 23 22 19 22 28 32 32 29 27 24 21 19 18 18 16 12 9 9 10 14 15 14 13 12 13 16 19 21 22 20 15 13 13 13 15 16 16 17 18 17 16 15 14 15 16 17 18 18 18 18 18 17 17 17 19 20 19 18
23 22 22 22 22 22 21 21 20 19 18 17 15 14 13 13 13 13 13 13 14 13 13 14 15 17 21 23 20 19 22 26 29 30 30 29 25 23 21 20 18 14 10 9 10 12 16 15 11 10 14 18 21 20 19 20 17 13 13 13 14 16 17 16 17 16 13 12 12 13 16 16 16 17 19 20 19 19 21 22 20 19 19 17 18
22 22 22 22 21 21 20 19 18 18 17 17 16 15 14 13 13 12 11 12 12 9 8 10 12 16 19 21 20 20 22 25 28 30 30 28 24 23 23 20 15 10 9 11 13 14 16 16 14 13 16 18 18 15 16 17 16 13 12 14 15 17 16 14 13 12 11 12 13 14 15 15 15 17 20 21 21 22 26 28 26 21 19 19 21
22 22 22 21 20 19 18 18 18 17 17 17 16 16 15 13 14 12 10 11 10 7 9 11 14 17 18 19 20 20 20 23 29 30 29 27 23 22 20 17 13 11 12 12 13 14 15 17 16 15 16 16 15 16 16 17 16 14 12 13 15 16 14 12 11 11 12 14 15 15 15 15 15 16 18 19 20 21 22 23 24 22 20 21 23
22 22 21 20 19 18 18 18 18 17 16 16 15 15 14 13 13 12 10 10 10 10 13 15 17 19 18 17 18 18 17 19 24 26 28 27 23 19 18 17 16 14 12 10 10 12 15 17 17 18 19 17 17 17 17 16 17 15 13 14 16 17 17 15 12 12 13 14 14 14 14 15 16 16 17 18 18 18 17 16 18 19 20 22 23
23 22 21 21 19 18 17 17 16 15 15 15 14 14 13 11 11 11 11 13 13 12 14 16 17 18 16 14 15 17 17 18 19 22 25 25 23 20 18 18 17 14 9 7 9 12 13 14 15 16 16 15 15 15 15 15 16 15 15 16 18 18 17 15 12 12 12 12 13 14 16 17 18 17 17 17 17 16 15 16 17 19 21 23 24
24 23 21 22 21 19 17 15 13 12 13 14 14 13 11 9 10 11 13 14 14 13 14 15 15 15 15 15 15 16 18 18 18 20 22 23 24 22 19 18 16 13 10 10 11 11 10 10 11 12 12 14 14 13 13 14 15 16 16 16 15 14 13 11 11 11 12 12 14 16 17 18 18 18 17 15 15 15 16 18 20 22 23 24 24
22 21 20 20 19 19 19 17 13 11 11 11 12 12 11 11 12 14 16 15 14 14 14 14 14 14 14 16 15 16 18 18 17 19 21 22 22 20 17 15 14 12 11 9 9 8 9 10 11 11 11 12 12 13 14 15 15 14 14 12 11 11 10 10 10 11 12 14 16 17 17 17 16 16 15 15 16 18 19 20 21 22 22 22 23
21 20 19 18 17 18 18 17 14 12 12 11 12 12 13 14 14 15 16 15 13 14 14 13 14 14 13 13 13 14 15 14 13 16 19 18 17 16 14 13 11 11 10 8 7 8 9 10 10 10 10 10 11 12 13 12 11 10 9 8 9 10 9 10 11 12 13 15 16 16 15 15 15 15 16 17 18 19 20 20 20 20 20 21 22
22 22 21 20 19 18 18 16 14 14 14 13 13 14 14 14 14 15 16 15 13 14 14 13 13 13 12 11 12 12 12 12 11 12 14 16 15 14 12 11 10 10 12 11 10 10 9 8 7 8 9 10 10 9 8 9 9 9 8 8 9 10 10 10 10 11 14 15 15 15 15 14 15 16 17 18 18 18 18 18 19 19 19 19 21
21 21 21 20 19 18 18 16 15 15 15 14 13 14 13 13 14 14 14 14 13 13 13 13 13 12 11 12 12 11 11 12 11 11 11 13 14 13 12 11 10 12 15 15 13 11 10 9 7 6 6 5 6 7 9 11 12 11 10 10 10 12 11 9 9 11 14 14 15 16 15 15 17 18 17 17 16 16 16 17 18 19 19 19 20
20 19 19 19 19 18 17 16 15 15 14 12 12 12 12 13 14 13 12 12 13 14 13 13 12 12 12 12 12 11 11 11 12 12 12 11 12 12 12 11 12 14 15 14 12 10 9 8 6 7 7 4 4 7 11 13 13 12 11 10 9 10 11 12 13 12 13 13 14 15 16 16 17 17 16 15 16 16 16 16 17 18 19 19 19
20 19 18 18 18 17 17 16 15 15 12 11 11 11 9 8 11 11 8 7 9 10 10 9 10 11 11 11 10 10 10 11 12 13 13 11 11 12 12 12 13 14 14 13 12 11 9 9 9 10 8 6 6 9 10 12 13 12 11 10 9 9 10 11 12 12 13 13 14 14 16 17 16 16 15 15 16 16 16 16 17 18 19 18 18
18 17 17 16 17 17 17 15 15 15 14 13 13 12 8 7 9 10 9 7 7 7 7 5 5 7 8 9 10 10 10 10 11 12 12 12 12 13 14 14 14 14 14 14 13 9 8 9 11 10 8 7 9 10 10 11 11 11 10 8 9 11 13 12 13 13 12 11 12 15 17 17 15 15 15 15 16 16 16 17 18 18 17 17 17
16 15 15 15 16 16 16 15 15 15 14 14 15 13 10 10 10 11 10 9 9 8 7 7 7 8 8 9 11 12 10 9 11 12 14 15 15 15 16 16 15 14 13 13 10 8 9 10 11 10 9 9 11 10 10 10 10 10 10 10 10 12 13 12 10 9 7 10 14 16 16 15 14 14 15 15 16 17 17 17 17 17 17 17 16
15 14 15 16 16 15 15 15 15 14 14 14 15 14 12 10 10 9 9 9 8 8 7 8 9 9 8 8 11 12 10 10 12 15 17 19 19 17 16 15 14 13 11 9 8 8 9 10 11 11 10 10 10 9 10 11 10 10 10 12 12 12 10 9 10 9 9 13 16 15 13 13 14 14 15 15 16 17 16 16 16 16 17 17 16
15 15 16 16 16 15 14 15 14 14 14 14 14 14 13 12 10 9 9 8 7 7 8 8 10 9 8 7 9 9 9 10 14 17 19 20 20 18 15 13 12 11 9 7 6 8 9 10 12 11 10 10 10 9 9 10 10 10 11 12 12 11 10 10 10 10 11 13 13 12 13 13 13 13 14 15 15 16 16 16 16 16 16 17 17
14 15 16 16 15 14 14 15 15 15 14 14 14 13 13 12 12 12 11 10 8 7 7 8 9 10 10 11 11 9 9 11 15 17 19 19 18 16 13 11 9 8 6 6 6 8 9 11 12 10 9 10 10 9 9 9 10 11 12 12 11 10 10 9 10 10 11 11 11 12 12 12 12 13 14 14 15 15 15 16 16 15 16 17 17
14 16 16 16 14 14 14 15 15 15 15 15 14 13 12 11 11 12 12 12 11 9 8 7 8 9 11 13 12 11 11 13 15 16 16 16 15 13 11 9 7 6 6 7 7 7 8 11 11 9 7 8 8 8 9 10 10 11 11 11 11 10 9 10 11 11 10 10 11 11 12 12 12 13 14 14 15 15 15 15 15 15 16 17 17
15 16 15 14 13 13 13 13 13 13 14 14 13 11 11 11 11 12 13 13 12 11 10 9 9 9 9 11 12 13 14 14 15 15 14 13 13 12 9 7 7 6 7 8 7 5 7 9 9 7 7 7 8 8 9 11 11 11 11 11 10 10 10 10 10 9 8 10 11 12 12 12 12 12 13 14 14 14 15 15 15 16 16 17 18
14 14 14 12 12 12 12 12 12 12 12 12 12 11 11 11 11 12 12 11 10 11 12 11 11 10 10 11 13 14 15 15 14 14 14 13 13 12 8 6 7 8 9 9 7 6 8 8 7 7 7 8 9 9 11 12 11 9 8 9 9 10 10 11 11 10 9 10 11 11 11 11 12 12 12 13 14 14 15 15 16 16 17 17 18
12 13 13 12 12 12 12 12 12 12 12 11 11 11 11 10 10 10 10 9 10 11 12 12 12 11 11 13 15 15 16 15 14 14 14 14 14 12 8 7 8 9 9 8 7 7 8 8 7 8 8 10 11 12 11 10 9 7 5 6 8 9 10 10 11 10 10 11 10 10 10 11 11 11 12 13 14 14 15 15 16 17 17 17 17
13 15 16 14 11 11 13 13 13 12 12 11 11 11 10 10 9 8 8 8 9 10 10 11 11 11 13 16 17 16 16 14 12 12 12 13 13 12 9 9 9 9 9 8 7 8 10 10 10 11 11 10 9 8 7 8 9 7 6 8 9 10 10 9 9 8 8 9 9 9 9 10 11 11 12 13 13 14 15 16 16 16 16 17 17
13 14 14 12 9 9 11 13 13 13 12 11 11 10 9 9 9 8 8 8 9 9 9 10 9 11 15 17 17 17 15 12 11 12 12 12 12 12 10 10 10 9 8 8 7 8 9 10 10 10 10 8 6 7 8 8 8 8 8 8 9 9 9 8 8 7 7 7 8 9 9 10 11 11 12 12 13 14 15 15 16 16 16 16 17
11 11 10 9 8 9 11 12 13 12 11 11 10 10 9 8 8 7 8 8 8 8 8 7 6 9 15 17 16 15 14 11 10 11 11 11 12 12 11 10 9 8 8 8 8 8 9 9 8 8 9 8 8 8 9 9 8 8 8 8 8 9 8 8 7 7 7 7 8 9 9 9 10 11 12 13 13 14 15 15 15 16 16 16 17
10 10 10 9 9 10 11 11 12 11 11 10 9 9 9 8 7 7 6 6 6 6 6 5 4 9 14 15 12 12 13 12 11 12 12 12 12 12 11 10 9 8 8 9 8 8 8 9 9 9 9 9 9 9 8 8 8 8 8 8 8 8 8 7 7 6 6 7 8 8 9 10 11 12 12 13 13 13 14 15 15 15 16 16 16
9 8 8 9 10 10 9 10 11 11 11 10 9 9 9 8 7 6 6 5 5 4 4 4 5 10 13 13 10 10 13 13 12 12 13 12 12 12 11 10 9 9 8 8 8 8 9 10 10 10 10 9 8 7 7 7 7 7 7 7 7 7 7 7 6 6 6 6 7 8 9 10 11 11 11 12 12 13 14 14 14 15 15 15 15
9 8 8 9 9 9 10 10 10 9 10 11 10 9 8 7 6 6 5 5 4 3 3 4 4 10 13 12 11 12 13 14 13 12 12 12 12 12 11 10 10 9 9 8 8 9 9 10 10 10 9 8 7 7 7 7 7 6 7 7 7 6 6 7 6 6 6 6 7 8 9 9 10 11 11 11 12 13 14 14 14 15 15 15 15
8 9 10 10 10 11 11 10 9 10 11 11 9 8 7 6 5 5 4 4 5 4 3 4 4 7 10 10 10 12 13 14 13 12 11 12 12 12 11 10 10 10 9 9 8 8 9 9 9 8 8 8 7 7 7 7 7 7 7 6 6 6 6 5 5 5 5 6 7 8 9 9 10 10 11 12 12 12 13 13 14 15 15 15 15
8 9 11 12 11 11 11 10 10 10 10 9 7 7 6 6 5 5 4 4 5 6 6 5 6 7 7 7 8 10 12 13 12 11 11 11 10 10 10 10 10 9 9 9 8 8 8 9 8 7 8 8 7 7 6 6 6 7 6 6 6 6 4 3 3 4 5 6 7 8 8 9 10 10 10 11 12 12 12 13 13 14 14 14 15
8 9 11 12 11 11 11 10 9 8 7 6 6 6 6 5 5 5 4 3 4 5 7 7 7 7 7 7 8 9 11 11 11 11 11 11 10 11 11 11 10 9 9 9 8 8 9 9 8 8 8 8 7 7 7 6 6 6 6 6 6 5 5 5 3 3 5 5 6 8 8 9 10 10 10 11 11 11 12 12 13 13 14 14 14
9 9 10 11 11 11 10 8 7 6 5 6 6 6 6 6 6 6 6 6 5 6 6 6 6 7 7 7 8 9 10 10 11 11 11 11 10 11 12 11 10 10 9 9 9 8 9 9 8 8 8 8 8 7 7 7 7 6 5 6 7 9 9 9 6 6 7 8 7 7 8 9 10 10 10 11 11 11 12 12 12 13 14 14 14
9 9 9 9 8 7 7 7 6 6 7 8 8 7 7 6 6 6 5 5 6 6 6 5 5 5 6 7 8 9 9 9 10 10 11 10 10 10 11 11 11 10 10 9 10 9 9 9 8 9 9 8 8 8 8 8 8 6 6 8 10 11 10 10 9 9 9 9 8 8 9 9 9 9 10 10 10 10 11 11 11 13 13 13 13
7 7 8 8 7 7 7 8 9 11 11 10 9 8 7 6 6 6 6 6 7 7 6 6 6 6 7 8 8 8 9 9 9 10 10 10 10 10 11 11 10 10 10 10 10 10 9 9 9 9 9 8 8 8 8 8 7 7 9 11 11 10 9 9 9 8 8 7 7 7 8 8 9 8 9 9 9 9 10 10 11 12 13 12 12
6 6 7 8 8 9 10 10 10 10 9 9 8 8 7 7 7 7 5 5 5 6 6 6 6 7 8 8 9 9 10 10 10 11 11 11 11 11 12 11 11 11 11 11 11 11 10 9 9 9 9 9 9 9 8 8 9 11 12 12 10 9 9 8 8 7 6 6 6 6 7 8 8 8 8 8 8 8 10 10 10 12 12 11 11
Wind_Direction
197 196 195 195 195 194 197 198 198 198 199 200 201 203 205 204 203 202 197 193 189 186 185 188 191 194 197 199 200 199 197 197 195 192 193 200 209 219 227 230 228 229 233 238 244 253 255 256 259 259 259 260 261 262 264 266 265 261 263 269 274 276 275 276 282 290 294 296 295 293 294 294 288 282 280 279 276 274 271 268 269 271 271 272 274
197 195 193 193 194 194 196 196 195 196 196 198 200 202 204 204 201 197 193 190 189 189 192 195 196 197 196 196 199 201 199 196 194 192 193 198 204 210 218 226 231 233 237 238 239 245 250 251 254 255 256 260 261 259 258 259 262 267 268 269 272 272 268 269 273 277 285 291 294 293 293 294 292 287 283 281 281 280 276 273 273 273 273 272 274
197 193 191 192 193 194 194 193 194 195 195 196 198 200 204 202 197 193 191 191 197 202 204 204 202 199 197 195 198 201 201 197 195 196 196 199 203 206 210 216 223 228 232 237 239 240 243 245 250 253 255 257 257 256 255 254 258 269 274 272 271 272 269 265 265 268 275 282 286 289 291 293 294 294 289 284 283 282 279 277 276 275 275 274 274
196 192 191 193 193 193 193 192 194 195 194 196 200 202 204 198 192 193 195 200 208 212 210 207 204 199 195 195 197 199 199 199 201 200 200 201 203 206 210 212 214 217 223 231 237 240 243 245 249 253 253 254 254 253 250 251 256 262 268 270 268 268 269 266 264 266 270 275 279 282 285 287 290 293 293 289 284 282 280 279 277 274 274 276 275
196 193 193 195 194 192 192 193 194 193 195 200 204 206 203 194 190 196 201 206 211 213 211 206 202 198 194 192 196 197 196 199 205 203 203 204 203 205 210 211 209 208 214 229 240 245 248 249 253 255 254 253 254 252 250 251 258 262 266 268 267 267 269 270 270 268 265 271 279 283 285 287 286 286 290 291 290 288 285 282 279 276 276 279 279
198 195 194 197 195 190 191 193 193 193 196 202 207 207 202 196 194 200 207 210 211 212 210 203 198 198 197 194 195 195 195 200 204 204 203 205 204 205 208 210 208 203 202 218 239 250 254 255 256 255 254 254 253 252 253 256 262 266 267 267 266 267 267 268 273 271 267 272 281 286 290 291 289 288 291 293 294 293 292 288 281 277 280 282 282
199 196 195 198 195 191 192 192 191 193 197 204 207 204 200 201 203 205 209 212 209 209 207 202 200 201 197 194 194 194 196 199 202 202 203 204 203 204 206 205 205 202 196 201 225 247 257 259 258 255 253 254 253 251 251 256 262 264 265 268 267 265 264 268 273 274 275 279 281 284 289 290 290 292 294 294 293 291 291 289 284 284 287 286 283
198 197 195 195 194 193 194 191 191 194 198 203 205 201 200 206 208 207 211 214 211 210 206 201 202 201 194 192 193 194 196 198 200 201 203 202 200 201 204 202 202 203 197 197 211 234 254 262 262 258 253 249 249 251 250 251 257 259 260 264 267 267 268 271 275 277 280 282 282 283 284 285 286 288 291 293 292 290 290 290 291 292 292 287 282
194 197 195 193 191 191 191 190 190 192 197 201 203 202 203 206 206 209 215 217 213 212 209 202 200 198 193 191 192 194 196 197 198 199 200 199 197 200 204 201 202 204 199 198 206 220 244 261 265 262 259 254 252 253 250 245 247 255 260 263 266 267 267 270 274 280 283 284 285 286 285 285 285 286 289 290 288 288 291 291 292 293 290 286 284
189 193 192 190 188 185 186 188 189 192 197 201 204 204 203 205 208 211 215 216 213 212 210 205 201 197 193 192 194 196 197 196 196 197 196 195 194 199 204 206 210 212 206 203 208 217 235 256 265 266 264 261 257 256 255 252 253 259 262 259 258 260 264 268 272 277 283 284 285 288 289 289 290 292 294 293 291 291 294 294 293 291 289 289 288
186 188 188 186 182 182 184 184 184 191 198 200 204 209 208 211 216 216 214 213 213 213 212 209 207 202 198 196 196 196 196 194 194 196 196 195 194 199 204 208 214 217 216 217 220 226 239 258 269 271 269 271 271 264 257 256 259 264 264 259 256 258 260 262 266 273 278 281 283 287 289 288 290 293 295 296 298 299 299 297 292 290 291 292 291
181 182 181 180 178 181 183 179 179 188 196 198 206 212 213 215 219 217 215 214 213 214 215 213 209 208 210 207 200 196 196 194 193 195 197 194 193 199 203 207 214 220 226 231 237 247 258 267 274 276 274 280 285 275 259 261 266 267 266 262 261 262 260 257 260 266 269 273 279 283 284 286 289 291 293 298 301 304 302 297 292 293 294 291 288
176 177 178 177 177 177 176 175 178 185 192 199 207 210 211 215 218 217 215 214 212 213 216 217 214 214 219 218 209 201 197 193 192 195 196 194 196 201 205 211 221 231 236 233 238 262 278 281 283 284 279 279 286 281 267 267 271 269 266 263 261 262 263 262 263 265 263 263 271 277 280 284 288 290 295 302 304 304 303 299 298 297 293 290 288
173 174 176 177 176 173 172 174 180 188 196 204 210 211 214 219 221 222 220 218 218 220 222 225 223 219 218 217 210 203 197 192 192 194 194 194 198 203 207 211 224 240 241 230 238 271 285 288 289 289 284 279 282 283 277 272 270 267 262 257 256 261 267 269 269 268 262 256 259 269 276 280 285 289 295 301 302 302 301 300 299 296 291 288 288
171 173 177 179 177 175 177 177 181 192 200 204 209 214 218 222 224 226 226 226 227 227 228 230 226 220 217 213 205 199 195 191 191 191 192 193 197 204 206 208 222 240 240 233 250 276 287 291 292 290 286 280 280 284 283 276 267 263 260 256 259 267 272 274 273 269 262 256 259 270 277 279 283 287 292 297 298 298 297 295 291 288 286 286 285
173 174 179 181 176 176 181 181 184 193 199 202 209 215 218 222 224 224 226 230 229 223 223 226 224 217 212 204 192 184 183 186 188 189 192 194 198 206 208 207 220 236 241 242 259 281 297 302 297 292 287 283 285 286 281 272 265 266 268 266 270 276 277 280 279 273 268 267 268 273 279 282 284 288 293 296 295 295 294 290 286 284 284 284 283
173 173 177 178 171 171 179 184 186 192 196 201 210 215 218 221 223 223 225 230 229 222 218 219 218 213 205 196 183 172 177 186 189 191 194 196 199 207 214 216 224 234 239 247 264 289 304 303 291 280 270 269 282 284 274 266 265 269 274 273 275 278 279 282 282 278 274 271 271 279 289 293 293 295 297 298 297 294 284 277 279 283 284 284 285
170 170 173 173 168 169 177 182 185 189 195 201 208 214 219 223 225 227 228 230 233 234 223 210 202 198 198 194 182 170 175 186 193 195 196 197 200 210 218 221 226 232 241 259 272 285 294 290 275 263 261 267 278 278 263 256 259 264 270 272 273 277 281 285 287 286 282 274 276 292 301 301 302 303 301 299 297 288 271 260 265 276 281 282 286
166 166 167 166 165 168 173 178 183 187 192 198 205 211 216 222 225 225 227 230 237 244 229 202 184 183 188 189 182 173 174 186 195 198 197 198 203 213 220 221 223 232 247 263 268 269 275 277 273 268 268 270 271 260 245 247 255 258 264 269 273 279 286 291 292 295 294 286 284 292 296 297 299 300 299 296 292 285 271 260 256 261 266 271 280
160 160 160 158 159 163 168 176 184 187 190 195 203 209 210 215 219 218 219 222 220 215 203 188 176 173 175 176 177 174 174 186 196 200 201 202 207 214 218 219 222 236 249 256 259 260 265 271 272 272 271 267 257 245 243 248 254 255 260 269 274 280 286 293 296 295 291 286 285 287 289 291 291 292 293 292 291 290 282 265 257 259 266 276 285
151 150 151 152 155 162 169 177 182 185 188 192 197 204 205 205 206 206 198 185 177 183 188 179 169 165 163 166 175 179 182 192 201 206 207 207 211 218 224 226 228 235 244 250 254 263 271 274 272 271 268 259 248 245 247 252 255 256 257 261 266 272 278 282 287 287 285 284 286 287 289 293 295 294 294 293 293 296 294 284 278 281 287 293 295
143 144 147 151 156 163 167 173 179 182 185 186 184 188 194 192 190 190 181 167 164 173 179 175 172 171 171 175 181 186 192 194 198 207 210 211 217 220 221 225 226 225 226 236 249 262 270 270 266 262 253 242 238 243 249 255 257 256 254 255 260 267 272 275 279 285 287 287 288 290 293 296 297 295 294 295 296 298 298 296 295 294 293 292 291
140 143 148 153 156 157 156 160 172 180 181 178 172 170 174 176 176 178 173 165 166 171 172 173 178 180 185 193 195 199 201 196 196 205 208 210 214 215 213 220 227 222 216 226 242 255 259 255 252 245 232 228 237 250 258 258 255 254 256 258 260 266 272 276 278 279 279 280 287 294 298 298 296 295 297 299 300 302 301 298 296 293 291 289 287
136 140 144 147 148 150 148 151 162 172 169 166 164 163 165 171 177 176 171 167 170 173 172 176 182 186 192 199 200 199 197 193 196 204 204 204 209 213 215 223 230 227 221 228 244 247 236 229 227 220 217 229 245 254 255 254 253 258 265 268 270 274 279 280 276 275 279 285 293 298 298 296 296 297 300 302 301 301 300 297 294 292 290 289 288
134 137 139 142 145 146 142 141 151 162 163 163 164 163 164 169 172 170 170 171 173 172 172 178 186 191 194 194 190 186 183 181 188 200 204 206 212 217 219 222 226 223 218 224 235 225 209 201 202 206 220 241 251 251 253 256 259 264 272 278 282 282 276 268 267 275 288 293 296 299 297 296 299 301 302 304 302 300 298 296 295 294 293 293 292
135 137 140 144 148 146 142 141 146 153 155 158 162 163 165 166 165 166 173 178 179 176 174 179 187 189 185 179 177 176 177 178 184 197 206 211 214 216 212 210 215 211 205 209 218 215 209 209 218 232 246 254 253 250 252 257 263 271 276 279 278 267 254 251 266 289 301 301 299 299 299 300 303 303 303 302 298 296 297 298 298 299 299 301 300
134 137 139 142 143 142 143 144 145 149 152 155 161 164 163 161 161 169 178 179 178 180 179 179 185 185 176 171 173 175 179 185 190 197 204 208 211 211 204 202 206 200 196 203 213 219 228 240 249 253 255 264 268 260 246 242 248 256 256 256 261 259 255 269 294 298 295 294 297 298 299 301 303 302 302 300 297 298 301 301 302 303 304 305 304
134 135 136 139 140 141 145 146 148 153 156 154 156 159 160 162 165 172 179 178 178 184 184 182 186 186 180 179 181 179 182 189 194 197 198 198 201 201 197 197 197 194 196 201 202 204 218 229 222 207 201 202 231 239 234 232 236 243 248 256 266 269 271 284 291 281 271 279 294 300 300 301 302 302 302 302 300 301 303 303 302 303 303 303 300
135 134 136 139 139 142 149 152 154 156 150 137 134 138 148 162 162 157 158 164 171 178 180 181 189 191 184 181 184 185 188 193 196 196 197 196 192 188 185 185 188 194 199 195 184 183 195 206 211 213 211 219 244 255 254 247 244 250 258 262 266 273 278 283 284 282 284 293 301 304 302 300 301 302 303 302 302 303 304 304 302 300 299 298 296
138 138 141 141 143 150 158 160 159 159 153 142 136 130 121 127 138 140 142 140 143 158 165 160 169 177 170 167 177 186 189 193 196 195 193 195 192 186 185 188 191 195 193 186 186 202 224 234 247 260 266 269 272 276 277 270 262 264 267 259 260 278 291 292 288 290 296 299 301 302 301 300 300 301 302 303 304 305 305 303 300 298 298 298 299
139 140 142 143 149 158 163 160 159 161 159 156 154 147 129 117 120 130 140 139 134 141 148 144 150 160 157 161 179 189 191 198 206 201 194 193 190 186 187 189 189 192 192 190 202 235 254 258 270 281 278 267 265 267 271 278 285 291 293 285 276 280 288 295 303 311 312 305 302 300 298 297 298 300 302 303 304 305 304 303 302 301 301 302 303
144 149 149 149 156 163 160 158 160 160 158 160 165 164 155 141 129 127 137 146 149 152 155 155 159 164 161 164 180 189 191 197 202 198 192 189 185 184 187 188 191 201 210 212 226 252 263 267 273 274 261 254 261 271 277 283 290 294 291 287 288 294 304 323 345 346 318 299 298 296 294 295 297 298 301 302 302 304 304 305 306 305 304 306 306
157 155 149 150 157 159 155 157 158 155 156 161 165 166 169 168 158 142 135 142 154 164 168 169 170 172 173 174 179 182 180 181 187 189 188 186 186 190 196 199 203 210 211 215 240 259 257 258 269 274 265 260 268 276 277 280 286 286 284 287 298 309 314 321 332 327 303 291 290 289 290 293 296 300 303 303 303 305 306 307 307 307 309 311 311
159 153 150 153 157 155 155 161 160 154 158 165 166 169 175 175 166 157 150 146 147 150 158 172 183 189 192 193 195 196 190 182 183 185 184 185 190 196 198 193 194 199 200 213 248 262 260 263 274 280 277 278 286 289 284 283 285 286 288 292 297 300 299 302 306 303 295 290 288 288 292 298 302 303 303 303 304 306 307 308 309 312 314 315 314
146 145 148 153 156 154 158 165 165 159 161 167 171 175 176 170 164 164 162 159 154 146 140 154 173 185 190 191 192 191 183 177 177 180 182 185 188 188 181 175 177 186 198 212 234 258 266 272 280 284 281 285 296 299 290 284 284 288 292 294 294 294 298 301 297 292 292 293 292 293 297 299 300 300 300 303 307 309 309 311 314 316 316 315 316
144 145 149 155 160 158 158 163 166 163 162 165 169 170 166 162 161 161 161 160 155 142 130 132 143 153 165 171 170 168 167 170 172 173 176 182 182 176 176 184 188 190 198 201 210 242 259 263 276 290 285 276 280 284 279 273 275 282 287 288 289 293 298 298 294 294 296 293 291 293 294 294 298 301 303 306 310 310 311 315 317 316 316 317 317
152 150 150 151 152 154 156 159 160 158 158 161 163 161 160 161 159 157 161 167 159 141 131 134 137 136 139 149 155 158 162 166 169 171 173 178 178 176 186 205 205 209 219 215 211 237 259 262 271 279 272 266 267 265 261 265 273 278 276 275 278 281 285 290 293 293 290 285 285 289 291 295 300 304 305 309 312 311 314 319 319 316 317 317 316
142 144 145 141 142 150 154 152 148 148 153 159 159 158 158 159 158 157 163 170 164 147 140 146 152 149 146 152 158 163 164 163 166 171 175 178 179 181 198 218 216 224 240 237 221 231 250 258 260 257 254 256 255 252 259 289 317 326 301 278 273 267 264 271 276 272 267 270 277 285 292 298 303 307 310 312 312 315 320 321 319 318 319 320 320
118 124 130 132 140 152 154 150 150 153 157 158 157 158 158 157 160 165 165 165 167 161 153 158 166 162 156 158 164 167 167 168 172 178 181 184 188 197 213 224 222 230 247 251 241 238 241 240 235 231 231 239 254 269 290 312 319 307 279 272 275 270 260 259 262 260 259 269 283 292 298 302 305 309 312 312 315 321 323 319 318 320 320 321 323
128 129 135 143 155 156 151 153 158 162 164 162 160 162 163 160 165 171 166 163 170 171 168 172 174 164 161 168 175 177 177 182 191 192 190 193 199 205 212 222 231 239 243 245 250 251 248 245 241 237 239 255 294 316 307 288 275 271 267 266 268 266 261 259 264 268 273 282 292 295 297 302 309 312 313 315 317 319 318 316 319 321 321 321 324
141 139 144 154 157 150 151 160 164 163 164 162 159 158 157 155 160 166 164 164 170 172 176 184 176 163 170 183 191 190 189 197 203 200 200 204 207 207 208 216 231 239 234 234 245 251 254 259 259 252 253 265 282 285 276 265 263 266 264 260 257 258 261 264 264 268 277 285 290 295 301 308 313 312 311 313 315 316 318 321 322 322 323 325 327
153 147 146 153 161 164 167 165 156 151 152 153 151 149 148 151 156 156 156 163 166 167 178 184 152 152 174 190 197 194 200 213 218 214 214 216 213 213 214 215 221 227 227 232 241 242 244 252 253 250 256 264 266 264 259 254 255 258 258 258 255 253 258 264 264 270 281 283 288 298 304 306 308 307 307 312 316 319 322 323 322 324 327 328 329
165 153 148 160 170 170 160 149 145 148 152 150 143 137 137 143 150 150 153 162 161 167 199 204 146 143 165 187 199 201 210 222 225 222 222 219 213 213 216 212 211 216 223 234 244 242 240 244 248 254 261 260 250 243 243 246 253 256 254 255 256 254 261 271 274 279 284 286 295 305 305 304 308 308 309 315 320 321 322 323 324 327 329 328 330
170 160 158 165 163 152 145 148 149 141 132 128 127 130 138 151 160 161 165 169 164 178 234 235 171 146 159 181 198 205 212 222 225 221 220 218 216 216 213 208 210 215 219 228 237 240 243 248 251 254 253 241 225 228 242 251 253 249 246 251 255 253 259 267 271 283 295 298 301 305 303 305 309 310 312 320 323 321 322 325 327 328 328 329 332
173 169 165 162 155 148 148 150 139 124 122 129 137 144 154 165 170 178 191 191 184 190 221 232 197 166 164 179 197 206 214 223 227 224 221 221 220 219 214 209 210 214 217 224 231 235 242 250 249 241 231 222 219 227 240 245 245 243 243 248 249 250 259 270 277 289 299 301 302 302 305 309 312 312 316 322 321 320 324 328 328 327 328 329 332
167 165 159 154 149 145 141 137 134 137 149 159 160 161 171 178 180 190 206 208 198 195 197 205 212 207 201 207 213 212 215 223 228 228 229 229 224 218 213 210 207 209 219 232 233 226 227 236 237 228 219 218 222 229 235 240 239 236 234 237 242 253 268 277 281 292 297 297 300 302 304 308 310 310 314 318 318 321 326 327 326 328 329 328 330
145 150 151 148 141 134 130 133 141 153 164 171 172 178 184 177 168 173 180 178 195 213 217 216 214 210 211 219 220 215 216 225 231 233 234 234 225 214 210 211 211 214 229 239 234 218 214 220 227 227 221 219 221 226 233 238 236 230 230 233 231 230 233 234 252 302 306 296 299 303 303 304 307 309 315 319 320 322 325 326 328 331 329 326 330
129 132 135 134 132 129 130 135 141 152 168 182 190 191 181 168 173 189 190 181 188 212 230 235 224 205 201 213 223 221 220 228 236 239 239 237 227 214 209 212 217 222 230 232 226 217 212 214 218 220 218 218 223 227 231 235 232 226 227 226 218 220 233 244 259 277 275 275 287 298 296 297 302 307 313 318 318 319 323 328 332 332 328 326 331
135 136 135 134 138 145 150 150 158 177 191 193 193 192 188 189 203 215 210 200 203 212 225 242 244 232 224 229 233 231 228 229 235 241 241 235 224 212 208 212 220 227 231 228 221 216 212 211 214 217 217 219 225 227 227 228 227 221 220 222 225 236 255 272 277 271 264 267 281 289 290 294 301 306 311 313 315 321 327 330 331 330 325 325 332
152 158 159 158 164 177 182 181 188 196 197 193 192 192 191 200 216 218 210 213 221 226 231 239 243 244 245 243 242 244 242 239 240 244 241 231 220 212 210 213 220 228 233 231 225 221 219 215 214 216 218 220 222 224 225 224 220 214 214 221 233 255 278 290 292 285 271 261 265 277 288 296 300 303 308 312 317 326 330 330 328 327 324 326 333
157 168 172 170 174 183 187 189 194 194 189 193 203 202 197 206 220 220 215 224 237 245 251 254 251 251 251 249 247 246 244 243 242 242 239 232 223 216 215 216 219 223 231 234 232 229 231 232 229 225 223 221 221 224 224 220 214 215 221 231 248 272 288 296 303 302 284 257 249 262 281 293 298 302 307 313 322 329 327 323 322 322 324 329 335
Height
746 750 753 757 759 762 765 768 771 774 777 780 782 785 788 790 792 794 795 796 797 799 801 802 802 803 803 805 806 807 808 809 811 812 815 817 819 821 823 823 824 824 824 825 825 826 826 827 827 827 827 827 826 826 825 825 825 825 826 826 826 826 826 825 825 822 821 820 820 819 819 818 817 817 816 815 815 814 814 814 813 813 812 812 811
741 745 749 752 755 757 761 764 768 771 774 777 780 782 785 787 788 789 791 792 794 795 795 794 794 795 796 798 799 801 802 804 806 807 809 811 814 816 819 820 821 822 822 823 823 824 825 825 826 826 826 826 825 825 824 824 824 823 824 824 824 824 824 824 824 822 820 818 818 817 817 816 815 814 814 813 812 812 811 811 810 810 809 809 808
736 741 744 747 750 753 757 761 765 768 771 774 777 779 781 783 784 785 788 789 790 790 787 786 787 788 790 792 793 796 800 802 804 804 806 808 810 813 815 816 818 819 820 821 822 822 823 823 824 824 824 824 824 823 823 823 822 822 822 823 823 822 822 822 822 821 819 817 817 816 814 814 813 812 812 811 810 810 809 808 808 807 806 806 805
731 736 739 742 745 749 753 757 761 764 767 770 772 773 775 777 779 781 782 782 780 780 779 779 781 782 785 787 790 794 797 800 802 803 805 807 808 810 812 813 814 816 818 820 821 821 821 821 822 823 823 822 822 822 822 821 821 821 821 822 822 821 820 820 820 819 817 816 815 814 813 812 811 810 810 809 808 807 806 805 805 804 803 803 802
726 731 734 738 741 745 749 753 756 760 763 764 764 766 769 771 773 773 773 771 769 770 772 775 777 780 782 785 788 791 794 798 800 801 803 805 806 808 810 811 812 813 816 818 819 820 820 820 821 821 821 821 820 820 820 820 820 820 820 819 819 819 818 818 817 817 815 814 812 811 810 810 809 808 808 807 806 805 804 803 802 801 800 800 800
721 725 729 733 736 741 744 748 752 754 755 756 757 760 763 764 765 766 765 765 766 768 771 774 775 777 780 782 786 788 791 794 797 799 801 803 805 806 808 809 810 811 812 815 817 819 819 819 819 819 819 819 819 819 819 819 819 818 818 817 817 817 816 816 816 815 814 812 811 809 808 808 807 806 806 805 803 802 801 799 798 798 798 797 797
715 719 724 728 732 736 739 743 746 747 748 750 752 755 757 759 760 760 761 762 764 766 768 770 771 772 775 778 782 784 787 791 794 796 798 800 802 804 805 806 808 808 807 809 813 816 817 818 818 817 817 817 817 817 817 817 817 817 816 816 816 814 814 813 813 813 812 810 810 808 807 806 805 804 803 803 801 800 798 797 795 795 795 794 794
711 715 720 724 729 732 735 738 740 742 744 746 747 749 751 754 755 755 757 758 760 762 763 764 766 769 771 774 778 781 784 787 790 793 795 797 799 801 802 803 804 805 804 803 807 811 814 816 816 815 815 815 815 815 815 816 815 815 815 815 814 813 812 812 811 810 809 808 807 806 805 804 803 802 801 800 799 798 797 795 793 792 792 791 791
707 712 716 720 725 728 732 735 737 739 741 743 744 745 747 749 750 750 752 755 757 759 760 762 763 766 768 771 774 777 780 783 786 789 792 794 795 798 800 801 802 802 800 799 801 805 809 813 814 813 813 813 813 813 814 814 814 813 813 812 812 811 810 810 809 808 807 806 805 803 802 801 800 799 798 798 797 796 795 794 792 790 789 788 787
704 709 713 717 722 725 728 731 733 736 738 739 741 743 745 747 747 749 751 753 755 757 759 761 762 763 765 767 771 774 776 778 781 784 788 790 792 795 798 800 801 801 799 797 798 799 804 809 811 812 812 811 811 812 812 812 812 811 811 810 809 809 808 808 807 806 805 804 803 802 800 799 798 797 796 795 794 793 792 791 789 788 787 785 784
701 706 710 714 718 722 725 727 730 733 735 736 738 741 743 745 747 748 750 752 754 756 758 759 760 762 764 765 767 770 772 774 777 781 785 787 790 792 795 797 799 800 799 797 797 798 800 805 808 810 810 810 809 810 810 811 810 809 809 808 807 806 806 805 805 804 803 802 801 800 799 797 796 795 794 793 792 791 790 790 788 786 785 783 781
700 704 707 712 715 719 722 724 727 730 732 734 736 738 742 744 745 747 748 750 752 754 755 757 758 761 763 764 765 767 768 770 773 778 782 785 788 791 793 796 797 798 798 797 797 798 799 802 806 808 809 808 808 808 809 810 809 807 806 805 805 804 803 803 802 802 801 800 799 798 797 795 794 794 793 791 790 789 789 788 786 785 783 781 779
697 701 705 709 712 716 720 722 724 727 730 733 736 737 740 742 743 744 746 748 750 751 753 755 756 759 761 762 764 765 766 766 770 776 779 782 786 789 791 794 795 796 797 795 796 798 800 801 803 805 806 807 807 808 808 807 806 806 805 804 802 801 800 800 800 799 798 798 797 796 795 794 793 792 791 790 789 788 787 785 784 783 781 779 777
695 699 703 707 710 714 718 720 723 726 729 732 735 736 738 740 741 743 745 747 748 749 751 753 754 756 758 760 762 764 764 763 766 771 775 779 783 786 788 791 793 795 795 794 794 797 799 800 801 802 804 805 806 807 806 805 804 804 804 801 799 798 797 797 796 796 795 795 794 793 792 792 791 790 790 789 788 786 785 784 783 782 780 778 775
694 698 702 705 709 713 717 719 722 725 727 730 732 734 736 737 739 741 743 744 746 747 748 750 752 753 755 757 760 762 762 763 766 770 774 777 781 783 785 787 791 793 793 791 792 794 796 798 798 799 800 802 803 804 803 802 801 801 801 799 797 796 795 794 793 792 792 792 791 790 790 790 789 788 788 787 786 785 784 782 782 780 778 775 773
693 697 700 703 707 711 714 718 721 723 725 728 730 733 734 736 738 739 741 742 743 744 746 748 749 752 754 755 757 759 761 763 767 771 774 778 781 783 783 784 787 789 789 788 789 792 794 795 795 796 797 798 799 798 798 798 797 797 796 795 794 793 792 791 791 790 790 789 789 788 788 787 787 786 785 784 783 783 782 781 780 778 776 772 769
691 695 698 701 705 709 713 716 719 722 724 727 730 732 733 735 736 737 739 740 741 742 743 745 747 750 751 753 755 758 760 763 766 769 772 775 778 780 781 782 783 785 785 785 787 789 791 793 793 793 793 794 795 794 794 795 794 793 793 792 792 791 789 789 788 787 786 786 785 785 785 784 783 782 782 781 780 780 780 779 778 775 772 769 765
689 693 696 700 704 708 712 715 718 721 724 727 729 731 733 734 735 736 737 738 739 740 741 743 745 747 750 752 755 757 759 762 766 768 770 773 775 777 779 779 780 781 782 783 785 786 788 790 791 791 791 791 791 790 791 792 792 791 791 790 789 788 787 786 785 784 783 783 782 782 781 780 779 778 778 777 777 777 776 775 773 771 769 767 763
687 691 695 699 703 707 710 714 717 720 723 726 729 731 732 734 735 736 736 737 738 740 741 743 745 747 750 753 755 756 758 761 764 767 769 772 774 775 777 777 778 779 780 781 783 783 785 787 788 788 787 788 788 788 788 789 790 790 789 788 787 786 785 784 783 783 782 782 781 780 778 777 776 775 774 773 772 772 770 768 768 767 766 764 761
687 691 695 698 703 706 709 713 716 718 721 724 727 729 731 732 734 735 736 737 739 741 742 744 746 748 751 753 754 757 759 761 764 766 768 770 772 773 775 776 777 778 778 779 781 782 783 784 784 784 784 785 786 786 787 788 788 788 788 787 785 784 783 783 782 782 781 780 779 777 776 774 773 772 771 770 769 768 766 764 764 764 762 759 756
686 691 694 698 702 706 709 712 715 716 719 721 724 727 728 730 732 734 736 737 738 740 742 744 747 749 751 753 755 757 759 761 763 765 766 768 770 772 773 774 775 776 777 778 779 780 781 781 781 781 782 783 784 785 785 786 785 785 785 784 783 782 781 781 781 780 779 777 776 775 773 772 771 770 769 768 767 765 764 763 763 761 760 758 755
685 689 693 697 702 706 710 713 716 717 719 719 721 724 727 728 730 733 734 735 737 740 742 744 747 749 751 753 754 756 758 760 762 763 765 767 768 770 772 772 773 774 775 776 777 777 778 778 778 778 779 780 782 783 783 783 783 783 783 782 781 781 780 780 779 778 777 775 774 772 771 770 770 769 767 766 764 764 763 762 761 761 759 758 756
684 688 693 696 701 704 708 713 718 721 720 720 720 723 726 728 729 732 734 735 737 740 741 744 747 749 750 752 753 754 757 758 760 762 763 765 766 768 770 769 770 771 773 774 775 775 776 776 776 776 777 779 780 780 781 781 781 781 780 780 780 779 779 778 777 776 775 773 771 770 769 769 768 767 765 764 763 762 762 761 760 759 757 756 754
686 690 695 698 702 703 704 710 717 721 722 722 722 723 726 728 730 732 734 735 737 738 739 742 745 747 748 749 750 752 755 757 759 760 762 763 765 766 767 767 768 769 771 772 773 774 774 774 775 776 777 778 778 779 779 779 779 779 779 778 778 777 777 776 775 774 772 771 769 768 768 768 766 765 764 763 762 761 761 759 758 756 754 752 751
686 690 695 701 704 705 705 709 714 718 721 723 724 725 727 729 730 732 733 735 736 736 737 740 742 744 745 746 748 751 754 756 758 759 760 762 762 764 765 765 766 768 770 771 773 773 773 773 774 775 776 777 777 778 778 778 778 777 777 777 776 775 775 774 773 771 771 769 768 768 767 766 765 764 763 762 761 760 758 757 755 753 752 750 747
685 689 694 699 703 705 706 710 714 716 719 723 725 725 727 728 729 731 732 734 734 734 735 738 740 741 742 744 747 750 752 754 756 757 758 759 760 762 763 764 765 768 769 770 772 772 772 772 773 774 775 776 776 776 777 776 776 776 776 775 774 773 773 771 771 770 770 769 768 768 766 765 764 763 762 760 759 758 756 755 753 751 749 747 745
687 690 694 698 701 704 708 713 716 716 718 721 723 725 726 727 728 729 730 731 732 733 733 735 737 738 740 743 746 748 750 752 754 756 757 758 758 760 761 762 764 766 768 769 770 771 771 772 772 773 774 774 774 774 774 774 774 773 772 772 771 771 770 770 769 769 769 769 769 767 766 764 763 761 760 759 757 756 755 753 751 749 747 746 743
688 691 694 697 699 703 708 713 716 716 717 719 721 723 725 726 727 728 728 729 730 731 731 733 735 736 738 741 744 746 748 750 752 754 755 755 756 758 759 761 763 764 766 768 769 770 770 770 771 772 771 771 772 772 772 772 771 770 770 770 769 769 769 768 767 767 767 767 766 765 764 763 762 760 758 757 755 754 753 752 750 748 746 744 741
688 691 694 696 699 703 708 711 713 715 717 718 720 722 723 724 725 726 727 728 728 729 730 732 734 735 737 740 742 744 746 747 749 751 752 753 755 756 758 760 762 763 765 766 767 768 769 769 769 769 769 769 770 770 769 769 769 768 768 768 768 767 766 766 765 765 765 765 764 764 763 762 760 759 757 755 754 753 752 750 749 746 744 742 739
687 690 693 696 699 703 706 709 711 714 716 719 721 722 723 724 724 725 727 728 729 730 731 733 734 735 737 740 741 743 744 745 747 749 751 752 754 755 757 759 760 762 763 765 766 767 766 766 766 765 765 767 767 767 767 766 765 765 765 765 766 765 764 764 763 763 763 764 764 764 762 760 759 757 756 754 753 751 750 749 747 744 742 739 736
687 690 693 696 700 703 705 707 710 713 715 717 720 722 723 725 725 726 728 729 730 732 733 734 735 736 738 739 741 742 744 745 746 748 750 752 754 755 757 758 760 761 762 764 765 765 764 763 763 762 763 764 764 764 764 763 763 763 763 763 763 762 762 762 760 760 761 763 763 762 761 759 758 756 755 754 752 750 749 747 745 742 740 737 734
687 690 693 697 701 702 704 706 709 711 713 716 718 720 722 724 726 727 729 730 731 732 733 734 736 737 738 739 740 742 743 744 746 748 749 751 753 755 757 758 759 761 762 763 764 763 762 762 761 760 761 761 761 761 762 762 762 762 762 762 761 760 760 760 759 760 762 763 762 761 760 758 757 755 754 753 751 749 747 745 743 741 738 735 733
687 689 693 698 700 702 704 706 709 711 713 714 716 718 720 721 724 727 729 730 731 732 733 735 736 738 739 740 741 742 743 745 746 747 749 750 753 755 756 757 759 760 761 762 763 762 761 761 759 758 758 759 759 760 761 761 761 761 761 761 760 760 760 760 760 761 762 762 761 760 758 757 756 754 753 752 750 748 746 744 741 739 736 734 731
687 690 694 698 700 701 703 706 708 711 713 714 715 716 717 719 721 724 727 729 731 732 734 735 736 738 739 740 741 742 743 744 746 747 749 750 752 754 755 757 758 759 760 761 761 760 760 759 756 756 757 758 759 759 760 760 761 761 760 760 761 761 761 761 761 761 761 760 760 759 757 756 755 754 752 751 749 747 745 742 740 738 735 733 731
689 692 696 698 699 700 703 705 707 708 711 712 713 714 715 717 719 722 724 726 728 731 734 735 736 737 738 739 740 741 743 744 746 747 749 750 752 754 755 756 758 758 759 759 760 759 759 758 756 756 757 759 760 760 760 760 760 759 759 760 761 761 761 761 761 761 760 760 759 758 757 756 755 753 752 749 747 746 744 741 739 737 735 733 731
691 693 696 697 698 700 702 704 705 707 709 710 712 713 714 716 718 720 722 723 726 729 733 735 736 737 738 739 740 741 743 744 746 747 749 750 752 753 755 755 756 756 757 758 758 758 758 758 757 757 758 759 760 761 761 760 759 758 759 760 761 761 761 761 761 760 760 760 759 758 756 755 754 752 750 748 747 745 742 740 738 736 734 733 730
691 693 694 696 698 700 702 704 705 707 708 710 711 712 714 715 716 718 720 722 724 728 732 734 736 738 739 740 741 742 743 745 746 748 749 750 751 752 753 754 754 755 755 755 755 756 757 757 757 758 759 760 760 760 760 759 756 755 757 759 760 761 762 761 760 760 760 759 758 757 755 754 753 751 750 748 746 744 742 740 738 736 734 732 729
690 692 693 696 698 700 702 704 706 707 709 710 711 712 713 714 716 717 719 721 723 727 731 733 735 737 739 740 742 743 744 745 747 748 749 750 751 751 752 752 753 753 753 753 753 755 756 756 757 759 759 759 759 758 757 756 754 754 756 759 760 760 760 760 760 759 759 758 757 755 754 753 752 750 749 747 745 743 741 739 737 735 732 730 728
691 692 694 697 698 700 701 704 706 707 708 709 710 712 713 714 716 717 718 720 723 726 729 732 734 735 737 739 741 742 744 745 747 748 749 749 750 751 751 751 751 751 751 752 752 753 754 755 756 757 757 757 757 756 756 756 756 756 758 759 759 759 759 759 758 757 757 756 755 754 753 752 751 750 748 747 745 743 741 739 737 734 732 729 727
692 694 696 697 698 700 701 703 705 706 707 708 710 711 712 714 715 716 718 720 722 725 727 729 731 733 735 737 738 740 743 744 745 746 747 748 748 749 749 749 749 749 750 751 752 753 753 753 754 754 755 755 756 756 757 757 758 758 758 758 758 758 757 757 756 756 756 755 755 754 753 752 750 749 748 746 744 743 741 738 736 734 732 729 727
692 695 697 698 699 700 701 703 704 705 706 708 709 711 712 714 715 716 718 720 722 724 725 727 729 731 733 735 737 739 741 742 743 744 745 746 747 747 748 748 748 748 750 751 752 752 753 753 753 753 754 755 755 756 757 758 758 757 757 757 757 757 756 756 755 755 755 755 754 753 752 751 750 749 747 746 744 742 740 738 736 733 731 729 727
693 695 697 698 699 700 701 702 704 705 707 708 709 711 713 714 715 717 718 720 722 723 724 726 729 731 733 735 736 738 740 740 740 741 742 743 744 745 746 746 747 748 749 750 751 752 752 752 753 753 753 753 754 755 756 757 757 756 756 756 756 756 755 755 754 754 754 754 753 753 752 751 750 748 747 745 743 741 739 738 736 733 731 729 727
693 695 697 698 699 700 701 703 705 707 708 709 710 712 713 715 717 719 720 721 722 723 724 726 728 731 733 735 736 737 738 738 738 739 740 741 742 743 744 745 746 747 748 749 750 750 751 751 751 752 752 752 754 755 755 755 755 755 755 755 755 755 754 754 754 754 753 753 753 752 751 750 749 748 746 744 743 741 739 737 735 733 731 729 727
694 696 697 698 699 701 704 706 707 708 708 709 711 713 714 716 718 719 720 721 723 724 725 726 727 730 733 734 735 736 737 737 737 737 738 739 740 741 742 744 745 746 747 748 749 749 750 750 750 750 751 752 753 754 754 754 754 754 754 754 754 754 754 754 753 753 753 753 752 752 751 749 748 747 745 744 743 741 739 737 735 734 731 729 727
694 696 697 698 700 703 705 707 708 709 710 711 713 714 715 716 717 718 719 720 722 724 725 725 727 729 731 733 734 734 735 735 735 736 737 738 739 740 741 743 744 745 746 747 748 748 749 749 749 750 751 752 753 753 753 753 753 753 753 753 753 753 753 753 753 753 753 752 752 751 750 749 748 746 745 744 743 741 739 737 736 734 732 730 728
694 696 697 699 702 704 706 708 709 710 711 712 713 714 715 716 716 718 718 719 721 723 724 724 726 728 730 731 733 733 733 734 734 735 736 736 737 739 740 742 743 744 745 745 746 747 748 749 749 749 750 751 751 752 752 752 752 752 752 752 752 752 752 752 752 752 752 752 751 751 750 749 747 746 745 744 742 741 739 738 736 734 732 730 728
695 697 699 701 703 705 707 709 710 711 712 713 714 714 714 715 716 717 718 719 721 722 722 722 723 726 728 730 731 731 732 733 733 734 735 735 736 738 739 740 741 743 743 744 745 746 747 748 748 748 749 750 750 751 751 751 751 751 751 751 751 751 751 751 751 751 751 751 750 750 749 748 747 746 745 744 742 741 739 737 736 734 732 730 728
698 700 702 703 704 706 707 709 711 712 712 713 713 713 713 715 716 717 717 718 720 721 721 720 721 722 725 727 729 729 731 732 732 733 734 734 735 737 738 739 740 741 742 742 744 745 746 747 747 747 748 748 749 749 750 750 750 751 751 750 750 749 749 750 750 750 750 749 749 749 749 748 747 746 744 743 742 740 739 737 736 734 733 730 728
700 702 703 704 705 706 707 709 711 712 712 712 713 713 713 714 715 715 716 717 719 720 721 720 720 721 723 724 726 727 728 729 730 731 732 733 734 736 737 738 739 739 740 741 743 744 745 745 745 746 747 747 748 748 748 748 749 750 749 748 748 748 749 749 749 748 748 748 748 748 748 747 746 745 744 743 742 740 739 738 736 735 733 730 728
701 701 703 704 705 706 707 708 709 710 710 711 711 711 711 713 713 714 715 717 717 718 719 720 721 721 722 723 724 725 726 727 728 730 730 731 733 734 735 736 737 738 739 740 742 743 744 744 744 745 745 746 746 747 747 747 748 748 747 746 747 748 748 748 747 747 746 746 746 747 747 746 745 745 744 742 741 740 739 738 737 735 733 730 728
700 701 702 703 704 705 706 707 707 708 708 709 709 709 711 712 713 713 714 715 716 717 718 719 720 720 721 722 723 724 725 726 727 728 729 729 731 733 734 735 736 737 738 739 740 742 743 743 743 744 745 745 745 746 746 746 746 745 745 746 747 747 747 747 746 746 745 745 745 745 745 745 745 744 743 742 741 740 740 738 737 735 733 731 729